Regional Weather Roundup
Issued by NWS

Home | Current Version | Previous Version | Text Only | Print | Product List | Glossary Off
Versions: 1 2 3 4 5 6 7 8 9 10 11 12 13 14 15 16 17 18 19 20 21 22 23 24 25 26 27 28 29 30 31 32 33 34 35 36 37 38 39 40 41 42 43 44 45 46 47 48 49 50

000
ASUS44 KMEG 020700
RWRTN
TENNESSEE HOURLY STATE WEATHER ROUNDUP
NATIONAL WEATHER SERVICE MEMPHIS TN
200 AM CDT SAT AUG 02 2014

TNZ002-004-019-021-049-052-054-088>092-020800-
WEST TENNESSEE

CITY           SKY/WX    TMP DP  RH WIND       PRES   REMARKS
MEMPHIS INTL   PTCLDY    74  65  73 N5        30.03F
NWS MEMPHIS      N/A     70 N/A N/A MISG        N/A
JACKSON        CLEAR     66  64  93 CALM      30.04F FOG
DYERSBURG      CLEAR     68  57  68 CALM      30.06R
UNION CITY     CLEAR     66  66 100 CALM      30.04S
PARIS          PTCLDY    63  61  94 CALM      30.05S
LEXINGTON      CLEAR     66  66 100 CALM      30.03F
SAVANNAH       PTCLDY    68  68 100 CALM      30.04S
$$

TNZ008-025-027-028-033-062-065-066-020800-
NORTH MIDDLE TENNESSEE

CITY           SKY/WX    TMP DP  RH WIND       PRES   REMARKS
NASHVILLE      CLOUDY    73  67  81 CALM      30.04F
CLARKSVILLE    CLEAR     70  59  68 N5        30.04S
COOKEVILLE     MOCLDY    70  68  94 CALM      30.07S
CROSSVILLE     CLOUDY    68  64  87 CALM      30.11F
$$

TNZ061-075-076-078-094-096-097-020800-
SOUTH MIDDLE TENNESSEE

CITY           SKY/WX    TMP DP  RH WIND       PRES   REMARKS
FAYETTEVILLE   CLEAR     66  63  88 CALM      30.06S
TULLAHOMA      CLOUDY    70  64  83 CALM      30.07F
WINCHESTER     CLOUDY    68  66  94 CALM      30.06F
MCMINNVILLE    MOCLDY    70  70 100 CALM      30.06F
COLUMBIA       CLEAR     70  68  94 CALM      30.03F
SHELBYVILLE    MOCLDY    70  68  94 E3        30.06F
$$

TNZ017-018-042-046-047-020800-
NORTHEAST TENNESSEE

CITY           SKY/WX    TMP DP  RH WIND       PRES   REMARKS
TRI CITIES     MOCLDY    62  57  83 CALM      30.11F
ELIZABETHTON   SUNNY     61  57  88 NE5       30.12F
$$

TNZ012-013-036-069-073-074-020800-
CENTRAL EAST TENNESSEE

CITY           SKY/WX    TMP DP  RH WIND       PRES   REMARKS
KNOXVILLE      LGT RAIN  71  67  87 CALM      30.07S
OAK RIDGE      LGT RAIN  69  67  93 CALM      30.09S
GATLINBURG     MOSUNNY   68  64  88 CALM      30.07S
$$

TNZ083-085-099-020800-
SOUTHEAST TENNESSEE

CITY           SKY/WX    TMP DP  RH WIND       PRES   REMARKS
CHATTANOOGA    CLOUDY    73  69  87 CALM      30.06F
$$

SKY/WX REPORTED AS FAIR MEANS FEW OR NO CLOUDS BELOW
12 THOUSAND FEET.



USA.gov is the U.S. government's official web portal to all federal, state and local government web resources and services.